Tracking 29892 objects as of 21-Nov-2024
HD Live streaming from Space Station
objects crossing your sky now

SKYNET 4E

Track SKYNET 4E now!
SKYNET 4E is classified as:


NORAD ID: 25639
Int'l Code: 1999-009B
Perigee: 35,778.9 km
Apogee: 35,808.0 km
Inclination: 11.7 °
Period: 1,436.1 minutes
Semi major axis: 42164 km
RCS: 5.2477 m2 (large)
Launch date: February 26, 1999
Source: United Kingdom (UK)
Launch site: FRENCH GUIANA (FRGUI)

Used primarily by UK's armed forces, government departments, agencies and other organizations that require secure communications.
Your satellite tracking list
Your tracking list is empty




NASA's NSSDC Master Catalog

Two Line Element Set (TLE):
1 25639U 99009B   24325.86682199 -.00000036  00000-0  00000+0 0  9996
2 25639  11.7232  12.2352 0003449 229.7834 129.1420  1.00272719 94273
Source of the keplerian elements: AFSPC